Location: Arbon
(43.0005°N, 0.7472°E)
Time: 22:47:18
(UTC+00:00)

Altair - Pass Details

Date: 01 December 2020
Orbit: 1501 x 1682 km, 47.2° (Epoch: 26 January)

Event Time Altitude Azimuth Distance (km) Brightness Sun altitude
Rises 23:55:17 0° 286° (WNW) 4,666 - -68.8°
Reaches altitude 10° 23:58:21 10° 288° (WNW) 3,671 - -68.7°
Maximum altitude 00:07:34 76° 14° (NNE) 1,544 - -68.4°
Drops below altitude 10° 00:16:47 10° 101° (E) 3,670 - -67.9°
Sets 00:19:51 0° 103° (ESE) 4,665 - -67.7°
